Regional Weather Roundup
Issued by NWS Lake Charles, LA

Home | Current Version | Previous Version | Text Only | Print | Product List | Glossary On
Versions: 1 2 3 4 5 6 7 8 9 10 11 12 13 14 15 16 17 18 19 20 21 22 23 24 25 26 27 28 29 30 31 32 33 34 35 36 37 38 39 40 41 42 43 44 45 46 47 48 49 50
000
ASUS44 KLCH 220810
RWRLCH
RWRLCH
REGIONAL WEATHER ROUNDUP
NATIONAL WEATHER SERVICE LAKE CHARLES LA
300 AM CDT FRI MAY 22 2015

Note: "fair" indicates few or no clouds below 12,000 feet with no
significant weather and/or obstructions to visibility.


ACROSS SOUTHEAST TEXAS

CITY           SKY/WX    TMP DP  RH WIND       PRES   REMARKS
BEAUMONT       CLOUDY    66  63  90 NE12      30.10R
BEAUMONT CITY  CLOUDY    64  63  95 NE12      30.10R
ORANGE         CLOUDY    64  61  91 NE8       30.12R
JASPER         CLOUDY    63  60  89 E7        30.15F
$$

ACROSS CENTRAL LOUISIANA

CITY           SKY/WX    TMP DP  RH WIND       PRES   REMARKS
LEESVILLE      CLOUDY    58  56  93 N7        30.13S
FULLERTON      CLOUDY    61  55  81 VRB5      30.12R
ALEXANDRIA INT MOCLDY    57  53  86 NE7       30.13S
ESLER FIELD    CLOUDY    58  52  80 VRB5      30.14S
DERIDDER       CLOUDY    60  58  92 NE3       30.14S
OAKDALE        CLOUDY    60  56  85 NE6       30.13S
OPELOUSAS      CLOUDY    60  58  92 N8        30.11S
$$

ACROSS SOUTHWEST AND SOUTH CENTRAL LOUISIANA

CITY           SKY/WX    TMP DP  RH WIND       PRES   REMARKS
SULPHUR        CLOUDY    65  62  91 NE9       30.11R
LAKE CHARLES   CLOUDY    64  60  87 NE12      30.11R
CHENNAULT INT  CLOUDY    63  60  90 E9        30.11S
CAMERON PHI    CLOUDY    64  63  94 NE15      30.11S
DEQUINCY       CLOUDY    61  61 100 NE3       30.12S
JENNINGS       CLOUDY    62  60  93 N12       30.10S
LAFAYETTE      CLOUDY    65  62  90 N9        30.09S
NEW IBERIA     CLOUDY    67  64  90 N13       30.09S
ABBEVILLE      CLOUDY    64  63  94 NE9       30.08F
PATTERSON      NOT AVBL
SALT POINT       N/A     72  69  90 CALM      30.05S
$$

SELECTED SITES ACROSS THE REGION

CITY           SKY/WX    TMP DP  RH WIND       PRES   REMARKS
HOUSTON BUSH   CLOUDY    70  66  87 NE10      30.09R
HOUSTON HOBBY  MOCLDY    70  67  90 NE7       30.08R
GALVESTON      MOCLDY    73  70  90 NE12      30.08S
COLLEGE STAT   CLOUDY    66  64  93 NE8       30.10S FOG
CONROE         CLOUDY    68  65  90 E8        30.10S
HUNTSVILLE     CLOUDY    65  63  93 E6        30.11F
LUFKIN         CLOUDY    63  59  87 NE6       30.14R
SHREVEPORT     PTCLDY    56  53  90 E7        30.16F
MONROE         PTCLDY    53  50  89 NE7       30.18F
NATCHEZ MS     CLOUDY    57  52  82 N6        30.14S
BATON ROUGE    CLOUDY    65  61  87 NE6       30.10S
N.O. INTL ARPT CLOUDY    72  67  84 N13       30.07S
SLIDELL        CLOUDY    68  68 100 N9        30.07S FOG
$$

MARINE REPORTS

STATION/POSITION TIME  TEMP    WIND        PRES    VSBY  WAVE
                       AIR SEA DIR/SP/G                  HT/PER
                 (UTC) (F)     (DEG/KT/KT) (MB)    (MI)  (FT/S)
BUOY 30 S HIGH I 0750   76 80   60/ 16/ 17 1017.2R         3/ 5
SEA RIM ST PARK  0800   69      40/ 11/ 14 1019.4R
PORT ARTHUR      0700      78   40/  3/  8 1018.6R
SABINE PASS N    0700      80   60/ 12/ 14 1018.3F
TEXAS POINT      NOT AVBL
CALCASIEU PASS   0700      80   70/ 12/ 18   N/A
LK CHARLES BEACH 0700      81              1019.4F
MARSH ISLAND     0700   72      40/ 12/ 16   N/A           0
FRESH WATER LOCK 0700      83   20/ 10/ 14 1018.2F
AMERADA PASS     0700      75   20/  2/  4 1017.8S
$$


USA.gov is the U.S. government's official web portal to all federal, state and local government web resources and services.